| time (UTC) | temp F | wind direction | speed MPH | gust MPH | rain 1hr in | rain 24hr in | rain mn in | humidity % | barometer mb |
| 20260506204552 | 40 | 295 | 10.0 | 19.0 | 0.00 | 0.00 | 0.00 | 62 | 1011.1 |
| 20260506203048 | 39 | 307 | 9.0 | 18.0 | 0.00 | 0.00 | 0.00 | 62 | 1011.1 |
| 20260506201546 | 39 | 280 | 11.0 | 17.0 | 0.00 | 0.00 | 0.00 | 61 | 1011.2 |
| 20260506194549 | 38 | 269 | 9.0 | 16.0 | 0.00 | 0.00 | 0.00 | 62 | 1011.3 |
| 20260506193041 | 38 | 284 | 7.0 | 13.0 | 0.00 | 0.00 | 0.00 | 66 | 1011.4 |
| 20260506191548 | 38 | 313 | 6.0 | 15.0 | 0.00 | 0.00 | 0.00 | 61 | 1011.5 |
| 20260506190046 | 38 | 285 | 8.0 | 12.0 | 0.00 | 0.00 | 0.00 | 63 | 1011.4 |
| 20260506184544 | 37 | 279 | 9.0 | 14.0 | 0.00 | 0.00 | 0.00 | 66 | 1011.4 |
| 20260506183059 | 37 | 329 | 5.0 | 10.0 | 0.00 | 0.00 | 0.00 | 63 | 1011.6 |
| 20260506181552 | 36 | 315 | 5.0 | 13.0 | 0.00 | 0.00 | 0.00 | 63 | 1011.5 |
| 20260506180041 | 36 | 332 | 3.0 | 10.0 | 0.00 | 0.00 | 0.00 | 64 | 1011.4 |
| 20260506174545 | 36 | 306 | 3.0 | 13.0 | 0.00 | 0.00 | 0.00 | 61 | 1011.7 |
| 20260506173054 | 36 | 254 | 7.0 | 15.0 | 0.00 | 0.00 | 0.00 | 64 | 1011.6 |
| 20260506171547 | 36 | 303 | 4.0 | 14.0 | 0.00 | 0.00 | 0.00 | 63 | 1011.7 |
| 20260506170054 | 36 | 267 | 4.0 | 12.0 | 0.00 | 0.00 | 0.00 | 63 | 1011.9 |
| 20260506164550 | 36 | 347 | 1.0 | 12.0 | 0.00 | 0.00 | 0.00 | 59 | 1011.7 |
| 20260506163046 | 36 | 295 | 6.0 | 14.0 | 0.00 | 0.00 | 0.00 | 62 | 1011.8 |
| 20260506161551 | 36 | 317 | 5.0 | 12.0 | 0.00 | 0.00 | 0.00 | 57 | 1011.7 |
| 20260506160047 | 36 | 342 | 4.0 | 12.0 | 0.00 | 0.00 | 0.00 | 57 | 1011.6 |
| 20260506154545 | 36 | 340 | 6.0 | 13.0 | 0.00 | 0.00 | 0.00 | 58 | 1011.4 |
| 20260506153048 | 36 | 300 | 6.0 | 16.0 | 0.00 | 0.00 | 0.00 | 55 | 1011.4 |
| 20260506151601 | 36 | 295 | 6.0 | 16.0 | 0.00 | 0.00 | 0.00 | 60 | 1011.3 |
| 20260506150045 | 35 | 319 | 8.0 | 17.0 | 0.00 | 0.00 | 0.00 | 60 | 1011.4 |
| 20260506144544 | 35 | 277 | 9.0 | 18.0 | 0.00 | 0.00 | 0.00 | 65 | 1011.3 |
| 20260506143048 | 34 | 304 | 6.0 | 13.0 | 0.00 | 0.00 | 0.00 | 67 | 1011.3 |
| 20260506141546 | 33 | 300 | 5.0 | 12.0 | 0.00 | 0.00 | 0.00 | 73 | 1011.3 |
| 20260506140056 | 32 | 329 | 5.0 | 10.0 | 0.00 | 0.00 | 0.00 | 74 | 1011.2 |
| 20260506134549 | 32 | 319 | 7.0 | 10.0 | 0.00 | 0.00 | 0.00 | 77 | 1011.1 |
| 20260506133052 | 31 | 311 | 5.0 | 10.0 | 0.00 | 0.00 | 0.00 | 75 | 1011.2 |
| 20260506131552 | 31 | 327 | 5.0 | 12.0 | 0.00 | 0.00 | 0.00 | 75 | 1011.2 |
| 20260506124545 | 31 | 286 | 6.0 | 13.0 | 0.00 | 0.00 | 0.00 | 76 | 1011.1 |
| 20260506123046 | 32 | 332 | 6.0 | 12.0 | 0.00 | 0.00 | 0.00 | 73 | 1010.8 |
| 20260506121543 | 32 | 315 | 5.0 | 10.0 | 0.00 | 0.00 | 0.00 | 72 | 1010.4 |
| 20260506120057 | 32 | 301 | 6.0 | 10.0 | 0.00 | 0.00 | 0.00 | 74 | 1010.2 |
| 20260506114547 | 32 | 309 | 7.0 | 12.0 | 0.00 | 0.00 | 0.00 | 73 | 1010.0 |
| 20260506113045 | 32 | 307 | 5.0 | 9.0 | 0.00 | 0.00 | 0.00 | 75 | 1010.0 |
| 20260506111542 | 32 | 315 | 3.0 | 8.0 | 0.00 | 0.00 | 0.00 | 74 | 1009.9 |
| 20260506110050 | 32 | 311 | 1.0 | 8.0 | 0.00 | 0.00 | 0.00 | 70 | 1009.8 |
| 20260506104548 | 32 | 299 | 4.0 | 9.0 | 0.00 | 0.00 | 0.00 | 73 | 1009.8 |
| 20260506103048 | 32 | 344 | 3.0 | 10.0 | 0.00 | 0.00 | 0.00 | 71 | 1009.8 |
| 20260506101555 | 32 | 286 | 3.0 | 9.0 | 0.00 | 0.00 | 0.00 | 72 | 1009.9 |
| 20260506100048 | 32 | 290 | 3.0 | 7.0 | 0.00 | 0.00 | 0.00 | 71 | 1009.9 |
| 20260506094555 | 32 | 315 | 4.0 | 10.0 | 0.00 | 0.00 | 0.00 | 72 | 1009.7 |
| 20260506093052 | 32 | 284 | 1.0 | 8.0 | 0.00 | 0.00 | 0.00 | 72 | 1009.7 |
| 20260506091546 | 32 | 304 | 4.0 | 10.0 | 0.00 | 0.00 | 0.00 | 72 | 1009.7 |
| 20260506090045 | 32 | 0 | 1.0 | 5.0 | 0.00 | 0.00 | 0.00 | 71 | 1009.6 |
| 20260506084548 | 32 | 0 | 2.0 | 7.0 | 0.00 | 0.00 | 0.00 | 71 | 1009.7 |
| 20260506083041 | 32 | 319 | 3.0 | 9.0 | 0.00 | 0.00 | 0.00 | 71 | 1009.7 |
| 20260506081548 | 33 | 348 | 3.0 | 11.0 | 0.00 | 0.00 | 0.00 | 70 | 1009.5 |
| 20260506073046 | 33 | 335 | 5.0 | 14.0 | 0.00 | 0.00 | 0.00 | 69 | 1009.8 |
| 20260506071604 | 33 | 307 | 3.0 | 13.0 | 0.00 | 0.00 | 0.00 | 68 | 1009.8 |
| 20260506061544 | 33 | 315 | 2.0 | 6.0 | 0.00 | 0.00 | 0.00 | 69 | 1009.6 |
| 20260506044542 | 34 | 311 | 1.0 | 5.0 | 0.00 | 0.00 | 0.00 | 70 | 1009.0 |
| 20260506043044 | 34 | 0 | 0.0 | 3.0 | 0.00 | 0.00 | 0.00 | 71 | 1009.0 |
| 20260506041557 | 33 | 0 | 0.0 | 4.0 | 0.00 | 0.00 | 0.00 | 71 | 1008.9 |
| 20260506040045 | 33 | 0 | 2.0 | 5.0 | 0.00 | 0.00 | 0.00 | 74 | 1009.0 |
| 20260506034545 | 33 | 301 | 0.0 | 4.0 | 0.00 | 0.00 | 0.00 | 74 | 1009.1 |
| 20260506033055 | 32 | 0 | 0.0 | 0.0 | 0.00 | 0.00 | 0.00 | 74 | 1009.0 |
| 20260506031547 | 32 | 0 | 0.0 | 3.0 | 0.00 | 0.00 | 0.00 | 77 | 1008.9 |
| 20260506030045 | 32 | 0 | 0.0 | 0.0 | 0.00 | 0.00 | 0.00 | 76 | 1009.1 |
| 20260506024547 | 31 | 0 | 0.0 | 0.0 | 0.00 | 0.00 | 0.00 | 75 | 1009.0 |
| 20260506023043 | 31 | 0 | 0.0 | 0.0 | 0.00 | 0.00 | 0.00 | 74 | 1008.8 |
| 20260506021554 | 31 | 0 | 0.0 | 0.0 | 0.00 | 0.00 | 0.00 | 75 | 1008.6 |
| 20260506020046 | 31 | 0 | 0.0 | 0.0 | 0.00 | 0.00 | 0.00 | 72 | 1008.6 |
| 20260506014551 | 32 | 0 | 0.0 | 0.0 | 0.00 | 0.00 | 0.00 | 69 | 1008.4 |
| 20260506013044 | 33 | 0 | 0.0 | 0.0 | 0.00 | 0.00 | 0.00 | 68 | 1008.2 |
| 20260506011549 | 34 | 0 | 0.0 | 0.0 | 0.00 | 0.00 | 0.00 | 66 | 1008.1 |
| 20260506010040 | 35 | 0 | 0.0 | 2.0 | 0.00 | 0.00 | 0.00 | 65 | 1007.8 |
| 20260506004547 | 36 | 36 | 1.0 | 6.0 | 0.00 | 0.00 | 0.00 | 63 | 1007.8 |
| 20260506003046 | 36 | 0 | 0.0 | 3.0 | 0.00 | 0.00 | 0.00 | 62 | 1007.8 |
| 20260506001606 | 37 | 360 | 1.0 | 5.0 | 0.00 | 0.00 | 0.00 | 61 | 1007.8 |
| 20260506000048 | 37 | 319 | 0.0 | 4.0 | 0.00 | 0.00 | 0.00 | 60 | 1007.7 |
| 20260505234549 | 37 | 306 | 1.0 | 7.0 | 0.00 | 0.00 | 0.00 | 60 | 1007.7 |
| 20260505233053 | 38 | 298 | 4.0 | 9.0 | 0.00 | 0.00 | 0.00 | 59 | 1007.7 |
| 20260505231552 | 38 | 290 | 3.0 | 8.0 | 0.00 | 0.00 | 0.00 | 60 | 1007.5 |
| 20260505230045 | 39 | 295 | 7.0 | 13.0 | 0.00 | 0.00 | 0.00 | 61 | 1007.5 |
| 20260505224547 | 38 | 288 | 1.0 | 14.0 | 0.00 | 0.00 | 0.00 | 59 | 1007.5 |
| 20260505223043 | 39 | 323 | 6.0 | 11.0 | 0.00 | 0.00 | 0.00 | 58 | 1007.5 |
| 20260505221550 | 39 | 304 | 7.0 | 11.0 | 0.00 | 0.00 | 0.00 | 58 | 1007.4 |
| 20260505220047 | 39 | 324 | 5.0 | 12.0 | 0.00 | 0.00 | 0.00 | 55 | 1007.4 |
| 20260505214600 | 40 | 301 | 9.0 | 19.0 | 0.00 | 0.00 | 0.00 | 58 | 1007.2 |
| 20260505213056 | 40 | 328 | 9.0 | 17.0 | 0.00 | 0.00 | 0.00 | 59 | 1007.0 |
| 20260505211547 | 40 | 299 | 12.0 | 19.0 | 0.00 | 0.00 | 0.00 | 56 | 1007.1 |
| 20260505210049 | 40 | 313 | 10.0 | 18.0 | 0.00 | 0.00 | 0.00 | 56 | 1006.9 |